This demonstration page uses our WeatherBlox Daily Observations layout. Learn more.

Left ArrowRight Arrow

39.92423, -83.80882

Hourly Observations for February 2, 2020

Temp ( °F °C ) Dew Point ( °F °C ) Humidity (%) Winds ( mph kmh ) Pressure ( in mb ) Visibility ( mi km ) Precip ( " mm )
12:56 am 00:56 Cloudy 34 1.1 30 -1.1 85 85 W 18 30 29.86 1011 10 16 N/A
1:56 am 01:56 Cloudy 34 1.1 31 -0.6 89 89 WSW 12 19 29.84 1010 10 16 0.21 5.33
2:56 am 02:56 Cloudy 34 1.1 31 -0.6 89 89 WSW 14 22 29.82 1010 10 16 N/A
3:14 am 03:14 Cloudy 34 1 30 -1 87 87 SW 13 20 29.85 1011 10 16 N/A
3:56 am 03:56 Cloudy 34 1.1 31 -0.6 89 89 SW 13 20 29.80 1009 10 16 N/A
4:36 am 04:36 Cloudy 34 1 30 -1 87 87 SSW 10 17 29.79 1009 10 16 N/A
4:56 am 04:56 Cloudy 34 1.1 31 -0.6 89 89 SW 12 19 29.76 1008 10 16 N/A
5:56 am 05:56 Cloudy 34 1.1 32 undefined 92 92 SSW 17 28 29.71 1006 10 16 N/A
6:56 am 06:56 Clear 34 1.1 31 -0.6 89 89 SSW 13 20 29.69 1005 10 16 N/A
7:56 am 07:56 Sunny 34 1.1 32 undefined 92 92 SSW 14 22 29.64 1004 10 16 N/A
8:56 am 08:56 Sunny 36 2.2 32 undefined 86 86 SW 15 24 29.63 1003 10 16 N/A
9:56 am 09:56 Sunny 41 5 33 0.6 73 73 WSW 22 35 29.60 1002 10 16 N/A
10:56 am 10:56 Sunny 45 7.2 35 1.7 68 68 WSW 20 31 29.60 1002 10 16 N/A
11:56 am 11:56 Sunny 48 8.9 38 3.3 68 68 SW 24 39 29.58 1002 10 16 N/A
12:56 pm 12:56 Sunny 54 12.2 39 3.9 57 57 WSW 16 26 29.57 1001 10 16 N/A
1:56 pm 13:56 Sunny 56 13.3 38 3.3 51 51 W 25 41 29.54 1000 10 16 N/A
2:56 pm 14:56 Sunny 58 14.4 39 3.9 50 50 W 30 48 29.54 1000 10 16 N/A
3:56 pm 15:56 Sunny 60 15.6 38 3.3 44 44 W 23 37 29.57 1001 10 16 N/A
4:56 pm 16:56 Sunny 59 15 39 3.9 48 48 W 20 31 29.59 1002 10 16 N/A
5:56 pm 17:56 Clear 55 12.8 39 3.9 55 55 W 17 28 29.63 1003 10 16 N/A
6:56 pm 18:56 Clear 54 12.2 39 3.9 57 57 WSW 21 33 29.68 1005 10 16 N/A
7:56 pm 19:56 Clear 54 12.2 39 3.9 57 57 WSW 18 30 29.72 1006 10 16 N/A
8:56 pm 20:56 Clear 52 11.1 38 3.3 59 59 WSW 15 24 29.74 1007 10 16 N/A
9:56 pm 21:56 Clear 51 10.6 38 3.3 61 61 WSW 15 24 29.77 1008 10 16 N/A
10:56 pm 22:56 Clear 50 10 38 3.3 63 63 WSW 17 28 29.78 1009 10 16 N/A
11:56 pm 23:56 Clear 48 8.9 39 3.9 71 71 WSW 13 20 29.80 1009 10 16 N/A

Powered by AerisWeather